Evansville, IN

6:25 AM CST on February 24, 2018 (GMT -0600)
Evansville Regional

Weather History for KEVV - January, 2014

Change the Weather History Date:

Monday, January 20, 2014

  Actual Average Record
Temperature  
Mean Temperature 42 °F 32 °F  
Max Temperature 52 °F 41 °F 71 °F (1906)
Min Temperature 31 °F 24 °F -16 °F (1985)
Degree Days  
Heating Degree Days 23 33  
Month to date heating degree days 682 655  
Since 1 July heating degree days 2516 2427  
Cooling Degree Days 0 0  
Month to date cooling degree days 0 0  
Year to date cooling degree days 0 0  
Moisture  
Dew Point 29 °F    
Average Humidity 60    
Maximum Humidity 76    
Minimum Humidity 44    
Precipitation  
Precipitation T in 0.10 in 2.50 in (1923)
Month to date precipitation 1.62 1.96  
Year to date precipitation 1.62 1.96  
Snow  
Snow 0.00 in 0.10 in 3.30 in (2016)
Month to date snowfall 0.6 2.1  
Since 1 July snowfall 7.8 5.6  
Snow Depth 0.00 in    
Sea Level Pressure  
Sea Level Pressure 29.90 in    
Wind  
Wind Speed 6 mph (WNW)    
Max Wind Speed 17 mph    
Max Gust Speed 22 mph    
Visibility 10 miles    
Events Rain    
T = Trace of Precipitation, MM = Missing Value Source: NWS Daily Summary

Daily Weather History Graph

Daily Weather History Graph

Search for Another Location

Airport or City:

Trip Planner

Search our weather history database for the weather conditions in past years. The results will help you decide how hot, cold, wet, or windy it might be!

Date:

Astronomy

Jan. 20, 2014 Rise Set
Actual Time 7:02 AM CST 4:59 PM CST
Civil Twilight 6:34 AM CST 5:28 PM CST
Nautical Twilight 6:02 AM CST 6:00 PM CST
Astronomical Twilight 5:30 AM CST 6:31 PM CST
Moon 9:29 PM CST (1/20) 9:07 AM CST (1/20)
Length of Visible Light 10h 54m
Length of Day
9h 57m
Waning Gibbous, 82% of the Moon is Illuminated
Jan 20
Waning Gibbous
Jan 23
Last Quarter
Jan 30
New
Feb 6
First Quarter
Feb 14
Full

Hourly Weather History & Observations

Time (CST) Temp. Windchill Dew Point Humidity Pressure Visibility Wind Dir Wind Speed Gust Speed Precip Events Conditions
12:54 AM 37.9 °F 30.0 °F 26.1 °F 62% 29.82 in 10.0 mi SW 12.7 mph - N/A   Clear
1:54 AM 37.0 °F 29.8 °F 26.1 °F 65% 29.82 in 10.0 mi SW 10.4 mph - N/A   Clear
2:54 AM 35.1 °F 26.9 °F 26.1 °F 70% 29.83 in 10.0 mi SW 11.5 mph - N/A   Clear
3:54 AM 33.1 °F 26.1 °F 25.0 °F 72% 29.83 in 10.0 mi SW 8.1 mph - N/A   Clear
4:54 AM 33.1 °F 28.7 °F 25.0 °F 72% 29.85 in 10.0 mi SW 4.6 mph - N/A   Clear
5:54 AM 33.1 °F 27.7 °F 25.0 °F 72% 29.88 in 10.0 mi SW 5.8 mph - N/A   Clear
6:54 AM 35.1 °F 32.2 °F 25.0 °F 67% 29.90 in 10.0 mi West 3.5 mph - N/A   Clear
7:54 AM 37.0 °F 32.4 °F 27.0 °F 67% 29.91 in 10.0 mi West 5.8 mph - N/A   Clear
8:54 AM 44.1 °F 42.5 °F 28.0 °F 53% 29.93 in 10.0 mi Variable 3.5 mph - N/A   Clear
9:54 AM 45.0 °F 41.8 °F 28.9 °F 53% 29.96 in 10.0 mi Variable 5.8 mph - N/A   Clear
10:54 AM 46.9 °F - 30.0 °F 52% 29.95 in 10.0 mi WNW 6.9 mph - N/A   Clear
11:54 AM 46.9 °F - 30.0 °F 52% 29.93 in 10.0 mi Calm Calm - N/A   Clear
12:54 PM 51.1 °F - 30.9 °F 46% 29.91 in 10.0 mi West 6.9 mph - N/A   Clear
1:54 PM 50.0 °F - 30.0 °F 46% 29.89 in 10.0 mi SW 4.6 mph - N/A   Clear
2:54 PM 52.0 °F - 32.0 °F 47% 29.90 in 10.0 mi North 5.8 mph - N/A   Clear
3:54 PM 48.9 °F - 33.1 °F 54% 29.91 in 10.0 mi NNW 9.2 mph - N/A   Clear
4:54 PM 43.0 °F 39.5 °F 32.0 °F 65% 29.92 in 10.0 mi North 5.8 mph - N/A   Clear
5:54 PM 42.1 °F 37.7 °F 32.0 °F 67% 29.93 in 10.0 mi North 6.9 mph - N/A   Clear
6:54 PM 39.9 °F 35.8 °F 30.9 °F 70% 29.93 in 10.0 mi North 5.8 mph - N/A   Clear
7:54 PM 39.9 °F 35.8 °F 30.0 °F 68% 29.92 in 10.0 mi NNE 5.8 mph - N/A   Partly Cloudy
8:54 PM 39.0 °F 34.8 °F 30.0 °F 70% 29.93 in 10.0 mi North 5.8 mph - N/A   Overcast
9:54 PM 39.0 °F 35.7 °F 30.0 °F 70% 29.93 in 10.0 mi NW 4.6 mph - N/A   Overcast
10:54 PM 37.9 °F 34.4 °F 30.0 °F 73% 29.92 in 10.0 mi NNW 4.6 mph - N/A   Overcast
11:54 PM 37.0 °F 33.3 °F 30.9 °F 79% 29.90 in 10.0 mi NW 4.6 mph - 0.00 in Rain Light Rain